Time,TemperatureF,DewpointF,PressureIn,WindDirection,WindDirectionDegrees,WindSpeedMPH,WindSpeedGustMPH,Humidity,HourlyPrecipIn,Conditions,Clouds,dailyrainin,SoftwareType,DateUTC
2013-02-28 00:00:00,68.4,60.1,30.41,NW,315,2.3,2.3,75,0.00,RA,SCT,0.00,WeatherDisplay:10.37,2013-02-28 05:00:00,
2013-02-28 00:01:00,68.4,60.1,30.41,NW,315,2.3,2.3,75,0.00,RA,SCT,0.00,WeatherDisplay:10.37,2013-02-28 05:01:00,
2013-02-28 00:06:00,68.4,60.1,30.41,WNW,292,1.2,1.6,75,0.00,RA,SCT,0.00,WeatherDisplay:10.37,2013-02-28 05:06:00,
2013-02-28 00:11:00,68.2,60.0,30.41,WNW,292,4.3,4.3,75,0.00,CLR,SCT,0.00,WeatherDisplay:10.37,2013-02-28 05:11:00,
2013-02-28 00:16:00,68.0,59.8,30.41,SW,225,3.5,3.5,75,0.00,CLR,SCT,0.00,WeatherDisplay:10.37,2013-02-28 05:16:00,
2013-02-28 00:21:00,68.0,59.8,30.41,WNW,292,2.9,2.9,75,0.00,CLR,SCT,0.00,WeatherDisplay:10.37,2013-02-28 05:21:00,
2013-02-28 00:26:00,68.0,59.8,30.41,WNW,292,2.3,2.5,75,0.00,CLR,SCT,0.00,WeatherDisplay:10.37,2013-02-28 05:26:00,
2013-02-28 00:31:00,68.0,59.8,30.41,NW,315,3.5,3.5,75,0.00,CLR,SCT,0.00,WeatherDisplay:10.37,2013-02-28 05:31:00,
2013-02-28 00:36:00,68.0,59.8,30.41,WSW,248,3.5,3.5,75,0.00,CLR,SCT,0.00,WeatherDisplay:10.37,2013-02-28 05:36:00,
2013-02-28 00:41:00,67.8,59.6,30.41,West,270,4.6,4.6,75,0.00,CLR,SCT,0.00,WeatherDisplay:10.37,2013-02-28 05:41:00,
2013-02-28 00:46:00,68.0,59.8,30.41,WSW,248,2.4,2.4,75,0.00,CLR,SCT,0.00,WeatherDisplay:10.37,2013-02-28 05:46:00,
2013-02-28 00:51:00,68.2,60.0,30.41,NW,315,2.3,2.3,75,0.00,CLR,SCT,0.00,WeatherDisplay:10.37,2013-02-28 05:51:00,
2013-02-28 00:56:00,68.2,60.0,30.41,NW,315,3.5,3.5,75,0.00,CLR,SCT,0.00,WeatherDisplay:10.37,2013-02-28 05:56:00,
2013-02-28 01:01:00,68.2,60.0,30.41,WNW,292,2.3,2.3,75,0.00,CLR,SCT,0.00,WeatherDisplay:10.37,2013-02-28 06:01:00,
2013-02-28 01:06:00,68.0,59.8,30.41,NNW,338,3.3,3.3,75,0.00,CLR,SCT,0.00,WeatherDisplay:10.37,2013-02-28 06:06:00,
2013-02-28 01:11:00,68.0,59.4,30.41,WNW,292,2.3,2.3,74,0.00,CLR,SCT,0.00,WeatherDisplay:10.37,2013-02-28 06:11:00,
2013-02-28 01:16:00,68.0,59.4,30.41,West,270,3.5,3.5,74,0.00,CLR,SCT,0.00,WeatherDisplay:10.37,2013-02-28 06:16:00,
2013-02-28 01:21:00,68.0,59.4,30.41,West,270,2.3,2.3,74,0.00,CLR,SCT,0.00,WeatherDisplay:10.37,2013-02-28 06:21:00,
2013-02-28 01:26:00,68.0,59.4,30.41,West,270,2.3,2.3,74,0.00,CLR,SCT,0.00,WeatherDisplay:10.37,2013-02-28 06:26:00,
2013-02-28 01:31:00,68.0,59.0,30.41,WNW,292,4.6,4.6,73,0.00,CLR,SCT,0.00,WeatherDisplay:10.37,2013-02-28 06:31:00,
2013-02-28 01:36:00,67.8,58.8,30.41,NNW,338,3.5,3.5,73,0.00,CLR,SCT,0.00,WeatherDisplay:10.37,2013-02-28 06:36:00,
2013-02-28 01:41:00,67.6,58.7,30.41,NNE,22,2.3,2.3,73,0.00,CLR,SCT,0.00,WeatherDisplay:10.37,2013-02-28 06:41:00,
2013-02-28 01:46:00,67.6,58.7,30.41,West,270,3.5,3.5,73,0.00,CLR,SCT,0.00,WeatherDisplay:10.37,2013-02-28 06:46:00,
2013-02-28 01:51:00,67.8,58.8,30.41,WNW,292,2.3,2.3,73,0.00,CLR,SCT,0.00,WeatherDisplay:10.37,2013-02-28 06:51:00,
2013-02-28 01:56:00,67.8,58.8,30.41,WSW,248,3.5,3.5,73,0.00,CLR,SCT,0.00,WeatherDisplay:10.37,2013-02-28 06:56:00,
2013-02-28 02:01:00,67.8,58.8,30.41,WSW,248,2.3,2.3,73,0.00,CLR,SCT,0.00,WeatherDisplay:10.37,2013-02-28 07:01:00,
2013-02-28 02:06:00,67.8,58.8,30.41,West,270,3.5,3.5,73,0.00,CLR,SCT,0.00,WeatherDisplay:10.37,2013-02-28 07:06:00,
2013-02-28 02:11:00,67.8,58.8,30.41,SW,225,3.5,3.5,73,0.00,CLR,SCT,0.00,WeatherDisplay:10.37,2013-02-28 07:11:00,
2013-02-28 02:16:00,67.8,58.5,30.41,West,270,1.2,1.8,72,0.00,CLR,SCT,0.00,WeatherDisplay:10.37,2013-02-28 07:16:00,
2013-02-28 02:21:00,67.8,58.8,30.41,WSW,248,2.3,2.3,73,0.00,CLR,SCT,0.00,WeatherDisplay:10.37,2013-02-28 07:21:00,
2013-02-28 02:26:00,67.6,58.7,30.41,SW,225,3.5,3.5,73,0.00,CLR,SCT,0.00,WeatherDisplay:10.37,2013-02-28 07:26:00,
2013-02-28 02:31:00,67.5,58.5,30.41,South,180,3.5,3.5,73,0.00,CLR,SCT,0.00,WeatherDisplay:10.37,2013-02-28 07:31:00,
2013-02-28 02:36:00,67.3,58.3,30.41,NNE,22,3.5,3.5,73,0.00,CLR,SCT,0.00,WeatherDisplay:10.37,2013-02-28 07:36:00,
2013-02-28 02:41:00,67.5,58.5,30.41,West,270,2.3,2.3,73,0.00,CLR,SCT,0.00,WeatherDisplay:10.37,2013-02-28 07:41:00,
2013-02-28 02:46:00,67.5,58.5,30.41,WSW,248,1.2,1.2,73,0.00,CLR,SCT,0.00,WeatherDisplay:10.37,2013-02-28 07:46:00,
2013-02-28 02:51:00,67.5,58.5,30.41,West,270,2.3,2.3,73,0.00,CLR,SCT,0.00,WeatherDisplay:10.37,2013-02-28 07:51:00,
2013-02-28 02:56:00,67.3,58.3,30.41,South,180,2.3,2.3,73,0.00,CLR,SCT,0.00,WeatherDisplay:10.37,2013-02-28 07:56:00,
2013-02-28 03:01:00,67.3,58.3,30.41,NW,315,0.0,0.5,73,0.00,CLR,SCT,0.00,WeatherDisplay:10.37,2013-02-28 08:01:00,
2013-02-28 03:06:00,67.3,58.3,30.41,NW,315,3.5,3.5,73,0.00,CLR,SCT,0.00,WeatherDisplay:10.37,2013-02-28 08:06:00,
2013-02-28 03:11:00,67.1,58.2,30.41,NW,315,2.3,2.3,73,0.00,CLR,SCT,0.00,WeatherDisplay:10.37,2013-02-28 08:11:00,
2013-02-28 03:16:00,66.9,57.6,30.41,NNE,22,2.3,2.3,72,0.00,CLR,SCT,0.00,WeatherDisplay:10.37,2013-02-28 08:16:00,
2013-02-28 03:21:00,67.1,57.8,30.41,NW,315,3.5,3.5,72,0.00,CLR,SCT,0.00,WeatherDisplay:10.37,2013-02-28 08:21:00,
2013-02-28 03:26:00,66.9,57.2,30.41,NW,315,3.5,3.5,71,0.00,CLR,SCT,0.00,WeatherDisplay:10.37,2013-02-28 08:26:00,
2013-02-28 03:31:00,66.9,57.2,30.41,WNW,292,4.8,4.8,71,0.00,CLR,SCT,0.00,WeatherDisplay:10.37,2013-02-28 08:31:00,
2013-02-28 03:36:00,66.7,56.6,30.41,NW,315,4.6,4.6,70,0.00,CLR,SCT,0.00,WeatherDisplay:10.37,2013-02-28 08:36:00,
2013-02-28 03:41:00,66.6,56.1,30.41,West,270,5.8,5.8,69,0.00,CLR,SCT,0.00,WeatherDisplay:10.37,2013-02-28 08:41:00,
2013-02-28 03:46:00,66.4,55.9,30.41,West,270,4.3,4.3,69,0.00,CLR,SCT,0.00,WeatherDisplay:10.37,2013-02-28 08:46:00,
2013-02-28 03:51:00,66.2,55.7,30.41,West,270,5.8,5.8,69,0.00,CLR,SCT,0.00,WeatherDisplay:10.37,2013-02-28 08:51:00,
2013-02-28 03:56:00,66.2,55.7,30.41,WNW,292,5.8,5.8,69,0.00,CLR,SCT,0.00,WeatherDisplay:10.37,2013-02-28 08:56:00,
2013-02-28 04:01:00,66.2,55.7,30.41,NNE,22,5.8,5.8,69,0.00,CLR,SCT,0.00,WeatherDisplay:10.37,2013-02-28 09:01:00,
2013-02-28 04:06:00,66.0,55.6,30.41,NNW,338,6.9,6.9,69,0.00,CLR,SCT,0.00,WeatherDisplay:10.37,2013-02-28 09:06:00,
2013-02-28 04:11:00,65.8,55.4,30.41,NNW,338,6.6,6.6,69,0.00,CLR,SCT,0.00,WeatherDisplay:10.37,2013-02-28 09:11:00,
2013-02-28 04:16:00,65.5,53.8,30.41,West,270,8.1,8.1,66,0.00,CLR,SCT,0.00,WeatherDisplay:10.37,2013-02-28 09:16:00,
2013-02-28 04:22:00,65.3,52.8,30.41,SSE,158,4.6,4.9,64,0.00,CLR,SCT,0.00,WeatherDisplay:10.37,2013-02-28 09:22:00,
2013-02-28 04:27:00,65.1,52.2,30.41,WNW,292,6.9,6.9,63,0.00,CLR,SCT,0.00,WeatherDisplay:10.37,2013-02-28 09:27:00,
2013-02-28 04:32:00,64.9,51.6,30.41,NW,315,5.8,5.8,62,0.00,CLR,SCT,0.00,WeatherDisplay:10.37,2013-02-28 09:32:00,
2013-02-28 04:37:00,64.8,51.4,30.41,NW,315,6.9,6.9,62,0.00,CLR,SCT,0.00,WeatherDisplay:10.37,2013-02-28 09:37:00,
2013-02-28 04:42:00,64.8,51.4,30.41,NW,315,6.9,6.9,62,0.00,CLR,SCT,0.00,WeatherDisplay:10.37,2013-02-28 09:42:00,
2013-02-28 04:47:00,64.6,50.8,30.41,NW,315,11.5,11.5,61,0.00,CLR,SCT,0.00,WeatherDisplay:10.37,2013-02-28 09:47:00,
2013-02-28 04:52:00,64.2,50.0,30.41,NW,315,4.6,4.6,60,0.00,CLR,SCT,0.00,WeatherDisplay:10.37,2013-02-28 09:52:00,
2013-02-28 04:57:00,64.2,50.0,30.41,NW,315,5.8,5.8,60,0.00,CLR,SCT,0.00,WeatherDisplay:10.37,2013-02-28 09:57:00,
2013-02-28 05:02:00,64.0,49.9,30.41,NW,315,11.5,11.5,60,0.00,CLR,SCT,0.00,WeatherDisplay:10.37,2013-02-28 10:02:00,
2013-02-28 05:07:00,64.0,49.9,30.41,NNW,338,6.9,6.9,60,0.00,CLR,SCT,0.00,WeatherDisplay:10.37,2013-02-28 10:07:00,
2013-02-28 05:12:00,63.9,49.7,30.41,West,270,5.8,5.8,60,0.00,CLR,SCT,0.00,WeatherDisplay:10.37,2013-02-28 10:12:00,
2013-02-28 05:17:00,63.9,49.7,30.41,SE,135,5.8,5.8,60,0.00,CLR,SCT,0.00,WeatherDisplay:10.37,2013-02-28 10:17:00,
2013-02-28 05:22:00,63.9,49.7,30.41,SW,225,5.8,5.8,60,0.00,CLR,SCT,0.00,WeatherDisplay:10.37,2013-02-28 10:22:00,
2013-02-28 05:27:00,63.9,49.7,30.41,NNE,22,3.5,3.5,60,0.00,CLR,SCT,0.00,WeatherDisplay:10.37,2013-02-28 10:27:00,
2013-02-28 05:32:00,63.9,49.2,30.41,NW,315,8.1,8.1,59,0.00,CLR,SCT,0.00,WeatherDisplay:10.37,2013-02-28 10:32:00,
2013-02-28 05:37:00,63.9,49.2,30.41,NNW,338,5.8,5.8,59,0.00,CLR,SCT,0.00,WeatherDisplay:10.37,2013-02-28 10:37:00,
2013-02-28 05:42:00,63.9,49.2,30.41,NW,315,5.8,5.8,59,0.00,CLR,SCT,0.00,WeatherDisplay:10.37,2013-02-28 10:42:00,
2013-02-28 05:47:00,63.9,49.2,30.41,NW,315,3.5,3.5,59,0.00,CLR,SCT,0.00,WeatherDisplay:10.37,2013-02-28 10:47:00,
2013-02-28 05:52:00,63.9,49.2,30.41,West,270,5.8,5.8,59,0.00,CLR,SCT,0.00,WeatherDisplay:10.37,2013-02-28 10:52:00,
2013-02-28 05:57:00,63.5,48.5,30.41,NW,315,6.9,6.9,58,0.00,CLR,SCT,0.00,WeatherDisplay:10.37,2013-02-28 10:57:00,
2013-02-28 06:02:00,63.7,48.6,30.41,NW,315,6.7,6.7,58,0.00,CLR,SCT,0.00,WeatherDisplay:10.37,2013-02-28 11:02:00,
2013-02-28 06:07:00,63.5,48.5,30.41,NW,315,4.6,4.6,58,0.00,CLR,SCT,0.00,WeatherDisplay:10.37,2013-02-28 11:07:00,
2013-02-28 06:12:00,63.5,48.5,30.41,NNE,22,3.5,3.5,58,0.00,CLR,SCT,0.00,WeatherDisplay:10.37,2013-02-28 11:12:00,
2013-02-28 06:17:00,63.5,48.9,30.41,NW,315,4.6,4.6,59,0.00,CLR,SCT,0.00,WeatherDisplay:10.37,2013-02-28 11:17:00,
2013-02-28 06:22:00,63.5,48.9,30.41,NW,315,4.6,4.6,59,0.00,CLR,SCT,0.00,WeatherDisplay:10.37,2013-02-28 11:22:00,
2013-02-28 06:27:00,63.3,48.7,30.41,NW,315,4.6,4.6,59,0.00,CLR,SCT,0.00,WeatherDisplay:10.37,2013-02-28 11:27:00,
2013-02-28 06:32:00,63.1,48.6,30.41,NW,315,5.8,5.8,59,0.00,CLR,SCT,0.00,WeatherDisplay:10.37,2013-02-28 11:32:00,
2013-02-28 06:37:00,63.1,48.6,30.41,West,270,4.6,4.6,59,0.00,CLR,SCT,0.00,WeatherDisplay:10.37,2013-02-28 11:37:00,
2013-02-28 06:42:00,63.3,48.3,30.41,NNW,338,3.5,3.5,58,0.00,CLR,SCT,0.00,WeatherDisplay:10.37,2013-02-28 11:42:00,
2013-02-28 06:47:00,63.1,47.7,30.41,NNW,338,5.8,5.8,57,0.00,CLR,SCT,0.00,WeatherDisplay:10.37,2013-02-28 11:47:00,
2013-02-28 06:52:00,63.0,47.0,30.41,NW,315,3.5,3.5,56,0.00,CLR,SCT,0.00,WeatherDisplay:10.37,2013-02-28 11:52:00,
2013-02-28 06:57:00,63.0,47.0,30.41,WNW,292,3.5,3.5,56,0.00,CLR,SCT,0.00,WeatherDisplay:10.37,2013-02-28 11:57:00,
2013-02-28 07:02:00,62.8,46.4,30.41,NW,315,6.9,6.9,55,0.00,CLR,SCT,0.00,WeatherDisplay:10.37,2013-02-28 12:02:00,
2013-02-28 07:07:00,63.0,47.0,30.41,NW,315,4.6,4.6,56,0.00,CLR,SCT,0.00,WeatherDisplay:10.37,2013-02-28 12:07:00,
2013-02-28 07:12:00,63.0,47.0,30.41,NW,315,4.6,4.6,56,0.00,CLR,SCT,0.00,WeatherDisplay:10.37,2013-02-28 12:12:00,
2013-02-28 07:17:00,63.0,47.0,30.41,NNW,338,3.5,3.5,56,0.00,CLR,SCT,0.00,WeatherDisplay:10.37,2013-02-28 12:17:00,
2013-02-28 07:22:00,63.0,47.0,30.41,WNW,292,4.6,4.6,56,0.00,CLR,SCT,0.00,WeatherDisplay:10.37,2013-02-28 12:22:00,
2013-02-28 07:27:00,63.0,47.0,30.41,NW,315,2.3,3.2,56,0.00,CLR,SCT,0.00,WeatherDisplay:10.37,2013-02-28 12:27:00,
2013-02-28 07:32:00,62.8,46.8,30.41,NNW,338,6.9,6.9,56,0.00,CLR,SCT,0.00,WeatherDisplay:10.37,2013-02-28 12:32:00,
2013-02-28 07:37:00,62.8,46.8,30.41,NW,315,6.9,6.9,56,0.00,CLR,SCT,0.00,WeatherDisplay:10.37,2013-02-28 12:37:00,
2013-02-28 07:42:00,63.1,47.2,30.41,WNW,292,3.5,3.5,56,0.00,CLR,SCT,0.00,WeatherDisplay:10.37,2013-02-28 12:42:00,
2013-02-28 07:47:00,63.0,47.0,30.41,NW,315,4.6,4.6,56,0.00,CLR,SCT,0.00,WeatherDisplay:10.37,2013-02-28 12:47:00,
2013-02-28 07:52:00,63.0,46.5,30.41,WNW,292,9.2,9.2,55,0.00,CLR,SCT,0.00,WeatherDisplay:10.37,2013-02-28 12:52:00,
2013-02-28 07:57:00,63.0,46.5,30.41,NNW,338,4.8,4.8,55,0.00,CLR,SCT,0.00,WeatherDisplay:10.37,2013-02-28 12:57:00,
2013-02-28 08:02:00,63.0,46.5,30.41,NNW,338,3.5,3.5,55,0.00,CLR,SCT,0.00,WeatherDisplay:10.37,2013-02-28 13:02:00,
2013-02-28 08:07:00,63.1,46.7,30.41,West,270,5.8,5.8,55,0.00,CLR,SCT,0.00,WeatherDisplay:10.37,2013-02-28 13:07:00,
2013-02-28 08:12:00,63.1,46.7,30.41,NW,315,4.6,4.6,55,0.00,CLR,SCT,0.00,WeatherDisplay:10.37,2013-02-28 13:12:00,
2013-02-28 08:17:00,63.1,46.7,30.41,NNW,338,4.6,4.6,55,0.00,CLR,SCT,0.00,WeatherDisplay:10.37,2013-02-28 13:17:00,
2013-02-28 08:22:00,63.1,46.2,30.41,NW,315,5.8,5.8,54,0.00,CLR,SCT,0.00,WeatherDisplay:10.37,2013-02-28 13:22:00,
2013-02-28 08:27:00,63.0,46.0,30.41,NW,315,6.9,6.9,54,0.00,CLR,SCT,0.00,WeatherDisplay:10.37,2013-02-28 13:27:00,
2013-02-28 08:32:00,63.0,46.0,30.41,NW,315,6.9,6.9,54,0.00,CLR,SCT,0.00,WeatherDisplay:10.37,2013-02-28 13:32:00,
2013-02-28 08:37:00,63.3,46.9,30.41,West,270,4.6,4.6,55,0.00,CLR,SCT,0.00,WeatherDisplay:10.37,2013-02-28 13:37:00,
2013-02-28 08:42:00,63.3,46.4,30.41,WNW,292,6.9,6.9,54,0.00,CLR,SCT,0.00,WeatherDisplay:10.37,2013-02-28 13:42:00,
2013-02-28 08:47:00,63.3,45.9,30.41,NW,315,6.9,6.9,53,0.00,CLR,SCT,0.00,WeatherDisplay:10.37,2013-02-28 13:47:00,
2013-02-28 08:52:00,63.9,46.9,30.41,NNW,338,3.3,3.3,54,0.00,CLR,SCT,0.00,WeatherDisplay:10.37,2013-02-28 13:52:00,
2013-02-28 08:57:00,63.9,46.9,30.41,NW,315,4.6,4.6,54,0.00,CLR,SCT,0.00,WeatherDisplay:10.37,2013-02-28 13:57:00,
2013-02-28 09:02:00,64.2,47.2,30.41,SW,225,3.5,3.5,54,0.00,CLR,SCT,0.00,WeatherDisplay:10.37,2013-02-28 14:02:00,
2013-02-28 09:07:00,64.2,46.7,30.41,NW,315,3.5,3.5,53,0.00,CLR,SCT,0.00,WeatherDisplay:10.37,2013-02-28 14:07:00,
2013-02-28 09:12:00,64.0,46.1,30.41,NNW,338,10.4,10.4,52,0.00,CLR,SCT,0.00,WeatherDisplay:10.37,2013-02-28 14:12:00,
2013-02-28 09:17:00,64.0,46.1,30.41,NNW,338,5.8,5.8,52,0.00,CLR,SCT,0.00,WeatherDisplay:10.37,2013-02-28 14:17:00,
2013-02-28 09:22:00,64.4,46.4,30.41,NNE,22,4.6,4.6,52,0.00,CLR,SCT,0.00,WeatherDisplay:10.37,2013-02-28 14:22:00,
2013-02-28 09:27:00,64.4,45.9,30.41,NW,315,8.1,8.1,51,0.00,CLR,SCT,0.00,WeatherDisplay:10.37,2013-02-28 14:27:00,
2013-02-28 09:32:00,64.9,46.4,30.41,NW,315,8.1,8.1,51,0.00,CLR,SCT,0.00,WeatherDisplay:10.37,2013-02-28 14:32:00,
2013-02-28 09:37:00,65.3,46.7,30.41,NNE,22,3.5,4.0,51,0.00,CLR,SCT,0.00,WeatherDisplay:10.37,2013-02-28 14:37:00,
2013-02-28 09:42:00,65.3,45.6,30.41,West,270,9.2,9.2,49,0.00,CLR,SCT,0.00,WeatherDisplay:10.37,2013-02-28 14:42:00,
2013-02-28 09:48:00,65.3,46.2,30.41,NNE,22,4.6,4.6,50,0.00,CLR,SCT,0.00,WeatherDisplay:10.37,2013-02-28 14:48:00,
2013-02-28 09:53:00,65.7,46.5,30.41,NW,315,3.5,3.6,50,0.00,CLR,SCT,0.00,WeatherDisplay:10.37,2013-02-28 14:53:00,
2013-02-28 09:58:00,65.8,46.7,30.41,West,270,8.1,8.1,50,0.00,CLR,SCT,0.00,WeatherDisplay:10.37,2013-02-28 14:58:00,
2013-02-28 10:03:00,66.2,46.5,30.41,WNW,292,3.5,3.5,49,0.00,CLR,SCT,0.00,WeatherDisplay:10.37,2013-02-28 15:03:00,
2013-02-28 10:08:00,66.2,46.5,30.41,NW,315,5.2,5.2,49,0.00,CLR,SCT,0.00,WeatherDisplay:10.37,2013-02-28 15:08:00,
2013-02-28 10:13:00,66.2,46.5,30.41,WNW,292,4.6,4.6,49,0.00,CLR,SCT,0.00,WeatherDisplay:10.37,2013-02-28 15:13:00,
2013-02-28 10:18:00,66.4,46.1,30.41,WNW,292,4.6,4.6,48,0.00,CLR,SCT,0.00,WeatherDisplay:10.37,2013-02-28 15:18:00,
2013-02-28 10:23:00,66.4,46.1,30.41,WNW,292,5.8,5.8,48,0.00,CLR,SCT,0.00,WeatherDisplay:10.37,2013-02-28 15:23:00,
2013-02-28 10:28:00,66.7,46.4,30.41,NNW,338,8.1,8.1,48,0.00,CLR,SCT,0.00,WeatherDisplay:10.37,2013-02-28 15:28:00,
2013-02-28 10:33:00,67.1,46.7,30.41,NNW,338,4.6,4.6,48,0.00,CLR,SCT,0.00,WeatherDisplay:10.37,2013-02-28 15:33:00,
2013-02-28 10:38:00,67.3,46.9,30.41,NNE,22,3.5,3.5,48,0.00,CLR,SCT,0.00,WeatherDisplay:10.37,2013-02-28 15:38:00,
2013-02-28 10:43:00,67.3,46.4,30.41,NW,315,4.6,4.6,47,0.00,CLR,SCT,0.00,WeatherDisplay:10.37,2013-02-28 15:43:00,
2013-02-28 10:48:00,67.6,46.1,30.41,NNE,22,6.9,6.9,46,0.00,CLR,SCT,0.00,WeatherDisplay:10.37,2013-02-28 15:48:00,
2013-02-28 10:53:00,68.0,45.3,30.41,NNW,338,6.9,6.9,44,0.00,CLR,SCT,0.00,WeatherDisplay:10.37,2013-02-28 15:53:00,
2013-02-28 10:58:00,68.2,44.2,30.41,NW,315,4.6,4.6,42,0.00,CLR,SCT,0.00,WeatherDisplay:10.37,2013-02-28 15:58:00,
2013-02-28 11:03:00,68.4,43.1,30.41,NNW,338,6.9,6.9,40,0.00,CLR,SCT,0.00,WeatherDisplay:10.37,2013-02-28 16:03:00,
2013-02-28 11:08:00,68.5,43.9,30.41,NNW,338,8.1,8.1,41,0.00,CLR,SCT,0.00,WeatherDisplay:10.37,2013-02-28 16:08:00,
2013-02-28 11:13:00,68.9,45.5,30.41,NNE,22,4.6,4.6,43,0.00,CLR,SCT,0.00,WeatherDisplay:10.37,2013-02-28 16:13:00,
2013-02-28 11:18:00,69.1,46.2,30.41,WNW,292,4.6,4.6,44,0.00,CLR,SCT,0.00,WeatherDisplay:10.37,2013-02-28 16:18:00,
2013-02-28 11:23:00,69.1,45.6,30.41,WNW,292,6.9,6.9,43,0.00,CLR,SCT,0.00,WeatherDisplay:10.37,2013-02-28 16:23:00,
2013-02-28 11:28:00,69.3,45.8,30.41,WSW,248,6.9,6.9,43,0.00,CLR,SCT,0.00,WeatherDisplay:10.37,2013-02-28 16:28:00,
2013-02-28 11:33:00,69.3,45.8,30.41,WNW,292,3.5,3.5,43,0.00,CLR,SCT,0.00,WeatherDisplay:10.37,2013-02-28 16:33:00,
2013-02-28 11:38:00,69.4,45.3,30.41,NNE,22,6.9,6.9,42,0.00,CLR,SCT,0.00,WeatherDisplay:10.37,2013-02-28 16:38:00,
2013-02-28 11:43:00,69.4,43.4,30.41,NW,315,4.7,4.7,39,0.00,CLR,SCT,0.00,WeatherDisplay:10.37,2013-02-28 16:43:00,
2013-02-28 11:48:00,69.3,42.6,30.41,SE,135,4.6,4.6,38,0.00,CLR,SCT,0.00,WeatherDisplay:10.37,2013-02-28 16:48:00,
2013-02-28 11:53:00,69.1,41.7,30.41,NW,315,4.6,4.6,37,0.00,CLR,SCT,0.00,WeatherDisplay:10.37,2013-02-28 16:53:00,
2013-02-28 11:58:00,69.1,41.7,30.41,NNW,338,5.8,5.8,37,0.00,CLR,SCT,0.00,WeatherDisplay:10.37,2013-02-28 16:58:00,
2013-02-28 12:03:00,69.1,42.4,30.41,NNE,22,4.6,4.6,38,0.00,CLR,SCT,0.00,WeatherDisplay:10.37,2013-02-28 17:03:00,
2013-02-28 12:08:00,70.0,43.2,30.41,WNW,292,3.5,3.5,38,0.00,CLR,SCT,0.00,WeatherDisplay:10.37,2013-02-28 17:08:00,
2013-02-28 12:13:00,70.3,43.5,30.41,NW,315,5.8,5.8,38,0.00,CLR,SCT,0.00,WeatherDisplay:10.37,2013-02-28 17:13:00,
2013-02-28 12:18:00,70.9,43.3,30.41,NW,315,3.9,3.9,37,0.00,CLR,SCT,0.00,WeatherDisplay:10.37,2013-02-28 17:18:00,
2013-02-28 12:23:00,71.2,42.9,30.41,NW,315,3.9,3.9,36,0.00,CLR,SCT,0.00,WeatherDisplay:10.37,2013-02-28 17:23:00,
2013-02-28 12:28:00,71.2,42.9,30.41,NNE,22,5.8,5.8,36,0.00,CLR,SCT,0.00,WeatherDisplay:10.37,2013-02-28 17:28:00,
2013-02-28 12:33:00,71.4,43.1,30.41,NW,315,8.1,8.1,36,0.00,CLR,SCT,0.00,WeatherDisplay:10.37,2013-02-28 17:33:00,
2013-02-28 12:38:00,71.2,42.9,30.41,NW,315,3.5,3.9,36,0.00,CLR,SCT,0.00,WeatherDisplay:10.37,2013-02-28 17:38:00,
2013-02-28 12:43:00,72.1,42.2,30.41,WNW,292,3.5,3.5,34,0.00,CLR,SCT,0.00,WeatherDisplay:10.37,2013-02-28 17:43:00,
2013-02-28 12:48:00,72.5,41.7,30.41,NNW,338,4.6,4.6,33,0.00,CLR,SCT,0.00,WeatherDisplay:10.37,2013-02-28 17:48:00,
2013-02-28 12:53:00,73.0,43.0,30.41,NNW,338,6.9,6.9,34,0.00,CLR,SCT,0.00,WeatherDisplay:10.37,2013-02-28 17:53:00,
2013-02-28 12:58:00,73.0,41.4,30.41,WSW,248,6.2,6.2,32,0.00,CLR,SCT,0.00,WeatherDisplay:10.37,2013-02-28 17:58:00,
2013-02-28 13:03:00,72.7,42.7,30.41,WNW,292,3.6,3.6,34,0.00,CLR,SCT,0.00,WeatherDisplay:10.37,2013-02-28 18:03:00,
2013-02-28 13:08:00,72.3,42.4,30.41,NNW,338,4.6,4.6,34,0.00,CLR,SCT,0.00,WeatherDisplay:10.37,2013-02-28 18:08:00,
2013-02-28 13:13:00,72.1,42.2,30.41,NNW,338,4.6,4.6,34,0.00,CLR,SCT,0.00,WeatherDisplay:10.37,2013-02-28 18:13:00,
2013-02-28 13:18:00,71.8,42.6,30.41,NNW,338,2.3,2.8,35,0.00,CLR,SCT,0.00,WeatherDisplay:10.37,2013-02-28 18:18:00,
2013-02-28 13:23:00,71.8,42.6,30.41,NW,315,4.6,4.6,35,0.00,CLR,SCT,0.00,WeatherDisplay:10.37,2013-02-28 18:23:00,
2013-02-28 13:28:00,71.6,42.5,30.41,NW,315,5.8,5.8,35,0.00,CLR,SCT,0.00,WeatherDisplay:10.37,2013-02-28 18:28:00,
2013-02-28 13:33:00,71.6,43.2,30.41,NW,315,3.5,3.5,36,0.00,CLR,SCT,0.00,WeatherDisplay:10.37,2013-02-28 18:33:00,
2013-02-28 13:38:00,71.2,43.6,30.41,NNW,338,2.3,2.9,37,0.00,CLR,SCT,0.00,WeatherDisplay:10.37,2013-02-28 18:38:00,
2013-02-28 13:43:00,70.9,43.3,30.41,NNW,338,3.5,3.5,37,0.00,CLR,SCT,0.00,WeatherDisplay:10.37,2013-02-28 18:43:00,
2013-02-28 13:48:00,70.5,43.7,30.41,NW,315,4.6,4.6,38,0.00,CLR,SCT,0.00,WeatherDisplay:10.37,2013-02-28 18:48:00,
2013-02-28 13:53:00,70.3,42.8,30.41,NW,315,3.5,3.5,37,0.00,CLR,SCT,0.00,WeatherDisplay:10.37,2013-02-28 18:53:00,
2013-02-28 13:58:00,70.5,43.7,30.41,WNW,292,3.2,3.2,38,0.00,CLR,SCT,0.00,WeatherDisplay:10.37,2013-02-28 18:58:00,
2013-02-28 14:03:00,70.5,43.7,30.41,NNW,338,3.5,3.5,38,0.00,CLR,SCT,0.00,WeatherDisplay:10.37,2013-02-28 19:03:00,
2013-02-28 14:08:00,70.2,42.7,30.41,NW,315,4.9,4.9,37,0.00,CLR,SCT,0.00,WeatherDisplay:10.37,2013-02-28 19:08:00,
2013-02-28 14:13:00,70.2,42.7,30.41,North,0,4.6,4.6,37,0.00,CLR,SCT,0.00,WeatherDisplay:10.37,2013-02-28 19:13:00,
2013-02-28 14:18:00,70.2,43.4,30.41,NNW,338,3.5,3.5,38,0.00,CLR,SCT,0.00,WeatherDisplay:10.37,2013-02-28 19:18:00,
2013-02-28 14:23:00,70.3,44.2,30.41,West,270,3.5,3.5,39,0.00,CLR,SCT,0.00,WeatherDisplay:10.37,2013-02-28 19:23:00,
2013-02-28 14:28:00,70.3,43.5,30.41,NW,315,3.5,3.5,38,0.00,CLR,SCT,0.00,WeatherDisplay:10.37,2013-02-28 19:28:00,
2013-02-28 14:33:00,70.5,44.4,30.41,WNW,292,2.3,2.4,39,0.00,CLR,SCT,0.00,WeatherDisplay:10.37,2013-02-28 19:33:00,
2013-02-28 14:39:00,70.5,44.4,30.41,West,270,4.6,4.6,39,0.00,CLR,SCT,0.00,WeatherDisplay:10.37,2013-02-28 19:39:00,
2013-02-28 14:44:00,70.3,44.2,30.41,West,270,6.9,6.9,39,0.00,CLR,SCT,0.00,WeatherDisplay:10.37,2013-02-28 19:44:00,
2013-02-28 14:49:00,70.2,45.4,30.41,WSW,248,3.5,3.5,41,0.00,CLR,SCT,0.00,WeatherDisplay:10.37,2013-02-28 19:49:00,
2013-02-28 14:54:00,70.2,45.4,30.41,WNW,292,2.3,2.5,41,0.00,CLR,SCT,0.00,WeatherDisplay:10.37,2013-02-28 19:54:00,
2013-02-28 14:59:00,70.2,45.4,30.41,WSW,248,4.6,4.6,41,0.00,CLR,SCT,0.00,WeatherDisplay:10.37,2013-02-28 19:59:00,
2013-02-28 15:04:00,70.2,44.7,30.41,WNW,292,2.9,2.9,40,0.00,CLR,SCT,0.00,WeatherDisplay:10.37,2013-02-28 20:04:00,
2013-02-28 15:09:00,69.6,44.2,30.41,West,270,2.3,2.4,40,0.00,CLR,SCT,0.00,WeatherDisplay:10.37,2013-02-28 20:09:00,
2013-02-28 15:14:00,69.8,45.0,30.41,West,270,3.5,3.5,41,0.00,CLR,SCT,0.00,WeatherDisplay:10.37,2013-02-28 20:14:00,
2013-02-28 15:19:00,69.6,44.2,30.41,West,270,2.3,2.3,40,0.00,CLR,SCT,0.00,WeatherDisplay:10.37,2013-02-28 20:19:00,
2013-02-28 15:24:00,69.8,43.7,30.41,WNW,292,2.3,2.3,39,0.00,CLR,SCT,0.00,WeatherDisplay:10.37,2013-02-28 20:24:00,
2013-02-28 15:29:00,69.8,43.7,30.41,WNW,292,4.6,4.6,39,0.00,CLR,SCT,0.00,WeatherDisplay:10.37,2013-02-28 20:29:00,
2013-02-28 15:34:00,70.0,42.5,30.41,WNW,292,4.6,4.6,37,0.00,CLR,SCT,0.00,WeatherDisplay:10.37,2013-02-28 20:34:00,
2013-02-28 15:39:00,70.2,41.9,30.41,WSW,248,4.6,4.6,36,0.00,CLR,SCT,0.00,WeatherDisplay:10.37,2013-02-28 20:39:00,
2013-02-28 15:44:00,70.0,41.8,30.41,West,270,4.6,4.6,36,0.00,CLR,SCT,0.00,WeatherDisplay:10.37,2013-02-28 20:44:00,
2013-02-28 15:49:00,70.2,41.9,30.41,NW,315,3.5,3.5,36,0.00,CLR,SCT,0.00,WeatherDisplay:10.37,2013-02-28 20:49:00,
2013-02-28 15:54:00,70.2,41.2,30.41,NNE,22,4.6,4.6,35,0.00,CLR,SCT,0.00,WeatherDisplay:10.37,2013-02-28 20:54:00,
2013-02-28 15:59:00,70.2,41.9,30.41,NW,315,4.6,4.6,36,0.00,CLR,SCT,0.00,WeatherDisplay:10.37,2013-02-28 20:59:00,
2013-02-28 16:04:00,70.3,42.1,30.41,WNW,292,3.5,3.5,36,0.00,CLR,SCT,0.00,WeatherDisplay:10.37,2013-02-28 21:04:00,
2013-02-28 16:09:00,70.5,43.0,30.41,West,270,2.3,2.3,37,0.00,CLR,SCT,0.00,WeatherDisplay:10.37,2013-02-28 21:09:00,
2013-02-28 16:14:00,70.5,43.7,30.41,NW,315,2.3,2.3,38,0.00,CLR,SCT,0.00,WeatherDisplay:10.37,2013-02-28 21:14:00,
2013-02-28 16:19:00,70.5,43.0,30.41,WNW,292,2.3,2.3,37,0.00,CLR,SCT,0.00,WeatherDisplay:10.37,2013-02-28 21:19:00,
2013-02-28 16:24:00,71.1,42.7,30.41,NW,315,3.2,3.2,36,0.00,CLR,SCT,0.00,WeatherDisplay:10.37,2013-02-28 21:24:00,
2013-02-28 16:29:00,71.2,43.6,30.41,SSE,158,0.0,1.2,37,0.00,CLR,SCT,0.00,WeatherDisplay:10.37,2013-02-28 21:29:00,
2013-02-28 16:34:00,70.5,40.0,30.41,NW,315,3.5,3.5,33,0.00,CLR,SCT,0.00,WeatherDisplay:10.37,2013-02-28 21:34:00,
2013-02-28 16:39:00,70.3,40.6,30.41,WSW,248,2.3,2.3,34,0.00,CLR,SCT,0.00,WeatherDisplay:10.37,2013-02-28 21:39:00,
2013-02-28 16:44:00,70.3,40.6,30.41,West,270,2.3,2.3,34,0.00,CLR,SCT,0.00,WeatherDisplay:10.37,2013-02-28 21:44:00,
2013-02-28 16:49:00,70.3,40.6,30.41,West,270,3.5,3.5,34,0.00,CLR,SCT,0.00,WeatherDisplay:10.37,2013-02-28 21:49:00,
2013-02-28 16:54:00,70.5,42.3,30.41,NW,315,1.2,1.4,36,0.00,CLR,SCT,0.00,WeatherDisplay:10.37,2013-02-28 21:54:00,
2013-02-28 16:59:00,70.3,42.1,30.41,WNW,292,2.3,2.3,36,0.00,CLR,SCT,0.00,WeatherDisplay:10.37,2013-02-28 21:59:00,
2013-02-28 17:04:00,70.3,42.1,30.41,WSW,248,2.3,2.3,36,0.00,CLR,SCT,0.00,WeatherDisplay:10.37,2013-02-28 22:04:00,
2013-02-28 17:09:00,70.5,42.3,30.41,WSW,248,2.3,2.3,36,0.00,CLR,SCT,0.00,WeatherDisplay:10.37,2013-02-28 22:09:00,
2013-02-28 17:14:00,70.5,42.3,30.41,WSW,248,3.5,3.5,36,0.00,CLR,SCT,0.00,WeatherDisplay:10.37,2013-02-28 22:14:00,
2013-02-28 17:19:00,70.5,43.0,30.41,WNW,292,2.3,2.3,37,0.00,CLR,SCT,0.00,WeatherDisplay:10.37,2013-02-28 22:19:00,
2013-02-28 17:24:00,70.2,41.9,30.41,West,270,2.3,2.3,36,0.00,CLR,SCT,0.00,WeatherDisplay:10.37,2013-02-28 22:24:00,
2013-02-28 17:29:00,70.2,41.2,30.41,NW,315,2.3,2.3,35,0.00,CLR,SCT,0.00,WeatherDisplay:10.37,2013-02-28 22:29:00,
2013-02-28 17:34:00,69.8,40.2,30.41,NW,315,2.3,2.3,34,0.00,CLR,SCT,0.00,WeatherDisplay:10.37,2013-02-28 22:34:00,
2013-02-28 17:39:00,69.8,40.9,30.41,WNW,292,1.2,1.6,35,0.00,CLR,SCT,0.00,WeatherDisplay:10.37,2013-02-28 22:39:00,
2013-02-28 17:44:00,69.8,40.2,30.41,WNW,292,2.3,2.3,34,0.00,CLR,SCT,0.00,WeatherDisplay:10.37,2013-02-28 22:44:00,
2013-02-28 17:49:00,69.6,40.7,30.41,West,270,2.3,2.3,35,0.00,CLR,SCT,0.00,WeatherDisplay:10.37,2013-02-28 22:49:00,
2013-02-28 17:54:00,69.6,41.5,30.41,SW,225,1.2,1.2,36,0.00,CLR,SCT,0.00,WeatherDisplay:10.37,2013-02-28 22:54:00,
2013-02-28 17:59:00,69.6,41.5,30.41,NW,315,2.3,2.3,36,0.00,CLR,SCT,0.00,WeatherDisplay:10.37,2013-02-28 22:59:00,
2013-02-28 18:04:00,69.3,40.4,30.41,WNW,292,4.6,4.6,35,0.00,CLR,SCT,0.00,WeatherDisplay:10.37,2013-02-28 23:04:00,
2013-02-28 18:09:00,69.3,41.2,30.41,West,270,0.0,1.4,36,0.00,CLR,SCT,0.00,WeatherDisplay:10.37,2013-02-28 23:09:00,
2013-02-28 18:14:00,69.3,41.2,30.41,WNW,292,1.2,1.2,36,0.00,CLR,SCT,0.00,WeatherDisplay:10.37,2013-02-28 23:14:00,
2013-02-28 18:19:00,69.1,41.0,30.41,WSW,248,3.5,3.5,36,0.00,CLR,SCT,0.00,WeatherDisplay:10.37,2013-02-28 23:19:00,
2013-02-28 18:24:00,68.9,41.5,30.41,SW,225,2.3,2.3,37,0.00,CLR,SCT,0.00,WeatherDisplay:10.37,2013-02-28 23:24:00,
2013-02-28 18:29:00,68.7,41.4,30.41,SSW,202,2.3,2.3,37,0.00,CLR,SCT,0.00,WeatherDisplay:10.37,2013-02-28 23:29:00,
2013-02-28 18:34:00,68.7,42.1,30.41,WSW,248,0.0,0.6,38,0.00,CLR,SCT,0.00,WeatherDisplay:10.37,2013-02-28 23:34:00,
2013-02-28 18:39:00,68.7,42.8,30.41,West,270,0.0,0.6,39,0.00,CLR,SCT,0.00,WeatherDisplay:10.37,2013-02-28 23:39:00,
2013-02-28 18:44:00,68.9,42.9,30.41,West,270,0.0,0.5,39,0.00,CLR,SCT,0.00,WeatherDisplay:10.37,2013-02-28 23:44:00,
2013-02-28 18:49:00,68.9,42.9,30.41,WNW,292,1.2,1.2,39,0.00,CLR,SCT,0.00,WeatherDisplay:10.37,2013-02-28 23:49:00,
2013-02-28 18:54:00,68.9,42.9,30.41,West,270,1.2,1.2,39,0.00,CLR,SCT,0.00,WeatherDisplay:10.37,2013-02-28 23:54:00,
2013-02-28 18:59:00,68.9,43.6,30.41,WSW,248,2.3,2.3,40,0.00,CLR,SCT,0.00,WeatherDisplay:10.37,2013-02-28 23:59:00,
2013-02-28 19:04:00,68.9,43.6,30.41,WSW,248,1.2,1.2,40,0.00,CLR,SCT,0.00,WeatherDisplay:10.37,2013-03-01 00:04:00,
2013-02-28 19:09:00,68.9,43.6,30.41,WSW,248,2.3,2.3,40,0.00,CLR,SCT,0.00,WeatherDisplay:10.37,2013-03-01 00:09:00,
2013-02-28 19:14:00,68.7,42.8,30.41,WSW,248,4.6,4.6,39,0.00,CLR,SCT,0.00,WeatherDisplay:10.37,2013-03-01 00:14:00,
2013-02-28 19:19:00,68.7,43.4,30.41,WSW,248,0.0,1.2,40,0.00,CLR,SCT,0.00,WeatherDisplay:10.37,2013-03-01 00:19:00,
2013-02-28 19:24:00,68.5,43.2,30.41,SW,225,3.5,3.5,40,0.00,CLR,SCT,0.00,WeatherDisplay:10.37,2013-03-01 00:24:00,
2013-02-28 19:29:00,68.5,42.6,30.41,SSE,158,3.5,3.5,39,0.00,CLR,SCT,0.00,WeatherDisplay:10.37,2013-03-01 00:29:00,
2013-02-28 19:35:00,68.4,43.1,30.41,SE,135,3.5,3.5,40,0.00,CLR,SCT,0.00,WeatherDisplay:10.37,2013-03-01 00:35:00,
2013-02-28 19:40:00,68.4,43.1,30.41,SW,225,2.3,2.3,40,0.00,CLR,SCT,0.00,WeatherDisplay:10.37,2013-03-01 00:40:00,
2013-02-28 19:45:00,68.4,43.7,30.41,SW,229,1.0,3.0,41,0.00,CLR,SCT,0.00,WeatherDisplay:10.37,2013-03-01 00:45:00,
2013-02-28 19:50:00,68.5,43.9,30.41,WSW,248,0.0,0.7,41,0.00,CLR,SCT,0.00,WeatherDisplay:10.37,2013-03-01 00:50:00,
2013-02-28 19:55:00,68.5,44.5,30.41,WSW,248,2.3,2.3,42,0.00,CLR,SCT,0.00,WeatherDisplay:10.37,2013-03-01 00:55:00,
2013-02-28 20:00:00,68.5,43.9,30.41,SSW,202,2.4,2.4,41,0.00,CLR,SCT,0.00,WeatherDisplay:10.37,2013-03-01 01:00:00,
2013-02-28 20:05:00,68.5,44.5,30.41,SSW,202,1.2,1.2,42,0.00,CLR,SCT,0.00,WeatherDisplay:10.37,2013-03-01 01:05:00,
2013-02-28 20:10:00,68.5,44.5,30.41,SW,225,1.2,1.2,42,0.00,CLR,SCT,0.00,WeatherDisplay:10.37,2013-03-01 01:10:00,
2013-02-28 20:15:00,68.4,43.8,30.41,SW,225,1.0,5.0,41,0.00,CLR,SCT,0.00,WeatherDisplay:10.37,2013-03-01 01:15:00,
2013-02-28 20:20:00,68.4,43.7,30.41,WSW,248,3.5,3.5,41,0.00,CLR,SCT,0.00,WeatherDisplay:10.37,2013-03-01 01:20:00,
2013-02-28 20:25:00,68.4,44.4,30.41,WSW,248,2.3,2.3,42,0.00,CLR,SCT,0.00,WeatherDisplay:10.37,2013-03-01 01:25:00,
2013-02-28 20:30:00,68.4,44.4,30.41,SW,227,1.0,3.0,42,0.00,CLR,SCT,0.00,WeatherDisplay:10.37,2013-03-01 01:30:00,
2013-02-28 20:35:00,68.0,44.0,30.41,WSW,248,4.6,4.6,42,0.00,CLR,SCT,0.00,WeatherDisplay:10.37,2013-03-01 01:35:00,
2013-02-28 20:40:00,67.8,43.9,30.41,WSW,248,2.5,2.5,42,0.00,CLR,SCT,0.00,WeatherDisplay:10.37,2013-03-01 01:40:00,
2013-02-28 20:45:00,67.8,44.5,30.41,WSW,257,1.0,5.0,43,0.00,CLR,SCT,0.00,WeatherDisplay:10.37,2013-03-01 01:45:00,
2013-02-28 20:50:00,67.6,44.3,30.41,SW,225,2.3,2.3,43,0.00,CLR,SCT,0.00,WeatherDisplay:10.37,2013-03-01 01:50:00,
2013-02-28 20:55:00,67.6,44.3,30.41,SW,225,1.2,1.2,43,0.00,CLR,SCT,0.00,WeatherDisplay:10.37,2013-03-01 01:55:00,
2013-02-28 21:00:00,67.5,44.2,30.41,WSW,237,1.0,3.0,43,0.00,CLR,SCT,0.00,WeatherDisplay:10.37,2013-03-01 02:00:00,
2013-02-28 21:05:00,67.5,42.3,30.41,WSW,248,4.6,4.6,40,0.00,CLR,SCT,0.00,WeatherDisplay:10.37,2013-03-01 02:05:00,
2013-02-28 21:10:00,67.5,42.3,30.41,SW,225,3.5,3.5,40,0.00,CLR,SCT,0.00,WeatherDisplay:10.37,2013-03-01 02:10:00,
2013-02-28 21:15:00,67.3,42.8,30.41,SW,229,1.0,5.0,41,0.00,CLR,SCT,0.00,WeatherDisplay:10.37,2013-03-01 02:15:00,
2013-02-28 21:19:00,67.3,42.8,30.41,SW,225,0.0,0.6,41,0.00,CLR,SCT,0.00,WeatherDisplay:10.37,2013-03-01 02:19:00,
2013-02-28 21:25:00,67.3,43.4,30.41,WSW,248,1.2,1.2,42,0.00,CLR,SCT,0.00,WeatherDisplay:10.37,2013-03-01 02:25:00,
2013-02-28 21:30:00,67.3,42.8,30.41,SSW,207,1.0,4.0,41,0.00,CLR,SCT,0.00,WeatherDisplay:10.37,2013-03-01 02:30:00,
2013-02-28 21:35:00,67.3,42.8,30.41,SW,225,2.3,2.3,41,0.00,CLR,SCT,0.00,WeatherDisplay:10.37,2013-03-01 02:35:00,
2013-02-28 21:40:00,67.3,42.8,30.41,South,180,2.3,2.3,41,0.00,CLR,SCT,0.00,WeatherDisplay:10.37,2013-03-01 02:40:00,
2013-02-28 21:45:00,67.3,42.8,30.41,SSW,202,2.3,2.3,41,0.00,CLR,SCT,0.00,WeatherDisplay:10.37,2013-03-01 02:45:00,
2013-02-28 21:50:00,67.3,42.1,30.41,WSW,248,0.0,1.5,40,0.00,CLR,SCT,0.00,WeatherDisplay:10.37,2013-03-01 02:50:00,
2013-02-28 21:55:00,67.3,42.1,30.41,WSW,248,2.3,2.3,40,0.00,CLR,SCT,0.00,WeatherDisplay:10.37,2013-03-01 02:55:00,
2013-02-28 22:00:00,67.3,42.1,30.41,WSW,248,0.0,1.6,40,0.00,CLR,SCT,0.00,WeatherDisplay:10.37,2013-03-01 03:00:00,
2013-02-28 22:05:00,67.5,42.9,30.41,WSW,248,0.0,0.8,41,0.00,CLR,SCT,0.00,WeatherDisplay:10.37,2013-03-01 03:05:00,
2013-02-28 22:10:00,67.6,43.1,30.41,SSW,202,1.3,1.3,41,0.00,CLR,SCT,0.00,WeatherDisplay:10.37,2013-03-01 03:10:00,
2013-02-28 22:15:00,67.5,42.3,30.41,WSW,248,2.3,2.3,40,0.00,CLR,SCT,0.00,WeatherDisplay:10.37,2013-03-01 03:15:00,
2013-02-28 22:20:00,67.5,42.3,30.41,SW,225,1.5,1.5,40,0.00,CLR,SCT,0.00,WeatherDisplay:10.37,2013-03-01 03:20:00,
2013-02-28 22:25:00,67.6,43.1,30.41,WSW,248,2.5,2.5,41,0.00,CLR,SCT,0.00,WeatherDisplay:10.37,2013-03-01 03:25:00,
2013-02-28 22:30:00,67.5,42.9,30.41,WSW,248,2.3,2.3,41,0.00,CLR,SCT,0.00,WeatherDisplay:10.37,2013-03-01 03:30:00,
2013-02-28 22:35:00,67.5,42.3,30.41,SW,225,2.3,2.3,40,0.00,CLR,SCT,0.00,WeatherDisplay:10.37,2013-03-01 03:35:00,
2013-02-28 22:40:00,67.5,42.9,30.41,SW,225,1.3,1.3,41,0.00,CLR,SCT,0.00,WeatherDisplay:10.37,2013-03-01 03:40:00,
2013-02-28 22:45:00,67.6,43.1,30.41,SW,225,2.3,2.3,41,0.00,CLR,SCT,0.00,WeatherDisplay:10.37,2013-03-01 03:45:00,
2013-02-28 22:50:00,67.6,43.1,30.41,West,270,0.0,0.6,41,0.00,CLR,SCT,0.00,WeatherDisplay:10.37,2013-03-01 03:50:00,
2013-02-28 22:55:00,67.6,43.1,30.41,WSW,248,3.5,3.5,41,0.00,CLR,SCT,0.00,WeatherDisplay:10.37,2013-03-01 03:55:00,
2013-02-28 23:00:00,67.5,42.9,30.41,NW,315,0.0,0.9,41,0.00,CLR,SCT,0.00,WeatherDisplay:10.37,2013-03-01 04:00:00,
2013-02-28 23:05:00,67.5,43.6,30.41,WSW,248,0.0,0.7,42,0.00,CLR,SCT,0.00,WeatherDisplay:10.37,2013-03-01 04:05:00,
2013-02-28 23:10:00,67.5,43.6,30.41,West,270,0.0,0.7,42,0.00,CLR,SCT,0.00,WeatherDisplay:10.37,2013-03-01 04:10:00,
2013-02-28 23:15:00,67.5,43.6,30.41,West,270,2.3,2.3,42,0.00,CLR,SCT,0.00,WeatherDisplay:10.37,2013-03-01 04:15:00,
2013-02-28 23:20:00,67.5,43.6,30.41,ENE,68,1.0,1.0,42,0.00,CLR,SCT,0.00,WeatherDisplay:10.37,2013-03-01 04:20:00,
2013-02-28 23:25:00,67.5,43.6,30.41,WSW,248,2.3,2.3,42,0.00,CLR,SCT,0.00,WeatherDisplay:10.37,2013-03-01 04:25:00,
2013-02-28 23:30:00,67.3,44.0,30.41,SW,225,3.5,3.5,43,0.00,CLR,SCT,0.00,WeatherDisplay:10.37,2013-03-01 04:30:00,
2013-02-28 23:35:00,67.3,44.0,30.41,West,270,2.3,2.3,43,0.00,CLR,SCT,0.00,WeatherDisplay:10.37,2013-03-01 04:35:00,
2013-02-28 23:40:00,67.1,43.8,30.41,West,270,2.4,2.4,43,0.00,CLR,SCT,0.00,WeatherDisplay:10.37,2013-03-01 04:40:00,
2013-02-28 23:45:00,67.1,44.4,30.41,SSW,202,2.3,2.3,44,0.00,CLR,SCT,0.00,WeatherDisplay:10.37,2013-03-01 04:45:00,
2013-02-28 23:50:00,67.1,45.0,30.41,West,270,2.4,2.4,45,0.00,CLR,SCT,0.00,WeatherDisplay:10.37,2013-03-01 04:50:00,
2013-02-28 23:55:00,67.1,45.0,30.41,West,270,1.8,1.8,45,0.00,CLR,SCT,0.00,WeatherDisplay:10.37,2013-03-01 04:55:00,